Weather History for KZZV - June, 2012

Change the Weather History Date:

Friday, June 29, 2012

  Actual Average Record
Temperature  
Mean Temperature 81 °F 72 °F  
Max Temperature 97 °F 83 °F 98 °F (1952)
Min Temperature 64 °F 61 °F 49 °F (1956)
Degree Days  
Heating Degree Days 0 0  
Month to date heating degree days 24 30  
Since 1 June heating degree days 24 30  
Since 1 July heating degree days 4592 5569  
Cooling Degree Days 16 7  
Month to date cooling degree days 163 150  
Year to date cooling degree days 307 204  
Since 1 June cooling degree days 163 150  
Growing Degree Days 32 (Base 50)    
Moisture  
Dew Point 69 °F    
Average Humidity 61    
Maximum Humidity 82    
Minimum Humidity 40    
Precipitation  
Precipitation 0.28 in 0.13 in 1.77 in (1952)
Month to date precipitation 2.35 3.90  
Year to date precipitation 15.35 19.36  
Sea Level Pressure  
Sea Level Pressure 29.84 in    
Wind  
Wind Speed 5 mph (West)    
Max Wind Speed 47 mph    
Max Gust Speed 68 mph    
Visibility 8 miles    
Events Rain , Thunderstorm    
T = Trace of Precipitation, MM = Missing Value Source: NWS Daily Summary

Daily Weather History Graph

Daily Weather History Graph

Search for Another Location

Airport or City:

Trip Planner

Search our weather history database for the weather conditions in past years. The results will help you decide how hot, cold, wet, or windy it might be!

Date:

Astronomy

Jun. 29, 2012 Rise Set
Actual Time 6:01 AM EDT 9:00 PM EDT
Civil Twilight 5:29 AM EDT 9:32 PM EDT
Nautical Twilight 4:47 AM EDT 10:14 PM EDT
Astronomical Twilight 3:59 AM EDT 11:02 PM EDT
Moon 4:44 PM EDT (6/29) 2:11 AM EDT (6/29)
Length of Visible Light 16h 03m
Length of Day
14h 58m
Waxing Gibbous, 77% of the Moon is Illuminated
Jun 29
Waxing Gibbous
Jul 3
Full
Jul 10
Last Quarter
Jul 19
New
Jul 26
First Quarter

Hourly Weather History & Observations

Time (EDT) Temp. Heat Index Dew Point Humidity Pressure Visibility Wind Dir Wind Speed Gust Speed Precip Events Conditions
12:53 AM 82.9 °F 84.6 °F 64.9 °F 54% 29.79 in 10.0 mi West 4.6 mph - N/A   Clear
1:53 AM 82.0 °F 83.8 °F 64.9 °F 56% 29.76 in 10.0 mi SW 4.6 mph - N/A   Clear
2:53 AM 81.0 °F 83.0 °F 66.0 °F 60% 29.76 in 10.0 mi SW 6.9 mph - N/A   Clear
3:53 AM 80.1 °F 82.3 °F 66.9 °F 64% 29.79 in 10.0 mi WSW 6.9 mph - N/A   Clear
4:53 AM 80.6 °F 83.2 °F 68.0 °F 65% 29.84 in 10.0 mi West 3.5 mph - N/A   Mostly Cloudy
5:53 AM 78.1 °F - 68.0 °F 71% 29.81 in 10.0 mi Calm Calm - N/A   Clear
6:53 AM 75.0 °F - 69.1 °F 82% 29.83 in 7.0 mi Calm Calm - N/A   Clear
7:53 AM 80.6 °F 84.6 °F 71.6 °F 74% 29.87 in 7.0 mi Calm Calm - N/A   Clear
8:53 AM 84.9 °F 92.1 °F 73.9 °F 69% 29.84 in 7.0 mi Calm Calm - N/A   Clear
9:53 AM 87.1 °F 94.5 °F 73.0 °F 63% 29.85 in 7.0 mi NNW 3.5 mph - N/A   Clear
10:53 AM 89.1 °F 98.0 °F 73.9 °F 61% 29.86 in 8.0 mi West 8.1 mph - N/A   Clear
11:53 AM 90.0 °F 99.0 °F 73.9 °F 59% 29.83 in 8.0 mi Calm Calm - N/A   Clear
12:53 PM 91.9 °F 100.7 °F 73.0 °F 54% 29.82 in 9.0 mi South 8.1 mph - N/A   Clear
1:53 PM 93.9 °F 97.5 °F 66.9 °F 41% 29.81 in 10.0 mi West 8.1 mph - N/A   Clear
2:53 PM 96.1 °F 102.9 °F 70.0 °F 43% 29.81 in 10.0 mi WSW 8.1 mph - N/A   Clear
3:53 PM 96.1 °F 101.6 °F 69.1 °F 41% 29.78 in 10.0 mi West 11.5 mph 16.1 mph N/A   Clear
4:53 PM 96.1 °F 101.0 °F 68.0 °F 40% 29.74 in 10.0 mi West 8.1 mph - N/A   Scattered Clouds
5:44 PM 91.4 °F 95.4 °F 68.0 °F 46% 29.78 in 10.0 mi WSW 8.1 mph - N/A Thunderstorm Mostly Cloudy
5:53 PM 90.0 °F 92.8 °F 66.9 °F 46% 29.85 in 9.0 mi West 47.2 mph 63.3 mph N/A Thunderstorm Unknown
5:58 PM 75.2 °F - 66.2 °F 73% 29.91 in 1.8 mi WNW 34.5 mph 64.4 mph 0.08 in Rain , Thunderstorm Heavy Thunderstorms and Rain
6:03 PM 69.8 °F - 66.2 °F 88% 29.91 in 0.8 mi NW 33.4 mph 67.9 mph 0.19 in Rain , Thunderstorm Heavy Thunderstorms and Rain
6:06 PM 69.8 °F - 66.2 °F 88% 29.90 in 1.0 mi NW 24.2 mph 67.9 mph 0.21 in Rain , Thunderstorm Heavy Thunderstorms and Rain
6:10 PM 69.8 °F - 66.2 °F 88% 29.90 in 1.5 mi WNW 25.3 mph 51.8 mph 0.21 in Rain , Thunderstorm Thunderstorms and Rain
6:13 PM 69.8 °F - 66.2 °F 88% 29.90 in 4.0 mi WNW 20.7 mph 35.7 mph 0.22 in Rain , Thunderstorm Light Thunderstorms and Rain
6:53 PM 70.0 °F - 66.0 °F 87% 29.96 in 7.0 mi WNW 15.0 mph 27.6 mph 0.28 in Rain , Thunderstorm Light Rain